Regional Weather Roundup
Issued by NWS Northern Indiana

Home | Current Version | Previous Version | Graphics & Text | Print | Product List | Glossary On
Versions: 1 2 3 4 5 6 7 8 9 10 11 12 13 14 15 16 17 18 19 20 21 22 23 24 25 26 27 28 29 30 31 32 33 34 35 36 37 38 39 40 41 42 43 44 45 46 47 48 49 50
000
ASUS43 KIWX 020300
RWRIWX

KIWX WEATHER ROUNDUP
NATIONAL WEATHER SERVICE NORTHERN INDIANA
1100 PM EDT MON SEP 01 2014

NOTE: "FAIR" INDICATES FEW OR NO CLOUDS BELOW 12,000 FEET WITH NO
SIGNIFICANT WEATHER AND/OR OBSTRUCTIONS TO VISIBILITY.

* THESE STATIONS ARE NOT UNDER NWS QUALITY CONTROL. THEY ALSO MAY NOT
  REPORT WEATHER SUCH AS PRECIPITATION OR FOG.

INZ001>027-020400-
NORTHERN INDIANA

CITY           SKY/WX    TMP DP  RH WIND       PRES   REMARKS
GARY*          PTCLDY    75  66  73 SW9       29.85S
VALPARAISO     CLEAR     71  66  84 SW10      29.87S
KNOX*          CLEAR     69  65  86 SW6       29.86S
SOUTH BEND     CLEAR     73  66  78 SW5       29.86R
GOSHEN         CLEAR     73  66  78 SW10      29.86R
MONTICELLO*    CLEAR     68  65  90 S5        29.88S
ANGOLA*        CLEAR     72  64  78 SW7       29.87R
FORT WAYNE     PTCLDY    72  67  84 SW10      29.90R
PERU/GRISSOM   CLEAR     69  68  98 SW7       29.90R

$$
INZ028>050-020400-
CENTRAL INDIANA

CITY           SKY/WX    TMP DP  RH WIND       PRES   REMARKS
LAFAYETTE      CLEAR     69  65  86 SW3       29.89S
KOKOMO*        CLEAR     70  63  78 SW7       29.90S
MUNCIE*        PTCLDY    74  67  78 SW6       29.92R
INDIANAPOLIS   PTCLDY    73  67  81 SW9       29.91S

$$
MIZ043>046-050>051-056>058-064>065-071>073-077>080-020400-
SOUTHWEST LOWER MICHIGAN

CITY           SKY/WX    TMP DP  RH WIND       PRES   REMARKS
BATTLE CREEK   CLEAR     71  65  81 SW7       29.85R
BENTON HARBOR  CLEAR     75  66  73 SW15      29.83R
COLDWATER*     CLEAR     73  68  87 SW7       29.86R
HILLSDALE*     PTCLDY    74  70  88 SW3       29.87R
HOLLAND        CLOUDY    71  65  81 W5        29.81S
GRAND RAPIDS   LGT RAIN  73  69  87 SW6       29.81S
KALAMAZOO      CLEAR     71  65  81 SW7       29.84S
STURGIS*         N/A     70  66  88 SW6       29.86R
THREE RIVERS*  FAIR      73  68  83 SW5       29.85S

$$
OHZ001>008-015>018-024>025-020400-
NORTHWEST OHIO

CITY           SKY/WX    TMP DP  RH WIND       PRES   REMARKS
DEFIANCE       PTCLDY    76  68  76 SW7       29.87R
FINDLAY        CLEAR     75  70  84 SW9       29.88R
TOLEDO EXPRESS PTCLDY    75  70  84 SW7       29.86R
TOLEDO METCALF CLEAR     75  69  81 SW7       29.87R
LIMA           CLEAR     76  70  82 SW13      29.90R

$$
&&



USA.gov is the U.S. government's official web portal to all federal, state and local government web resources and services.